Regional Weather Roundup
Issued by NWS

Home | Current Version | Previous Version | Graphics & Text | Print | Product List | Glossary On
Versions: 1 2 3 4 5 6 7 8 9 10 11 12 13 14 15 16 17 18 19 20 21 22 23 24 25 26 27 28 29 30 31 32 33 34 35 36 37 38 39 40 41 42 43 44 45 46 47 48 49 50
717
ASUS43 KLMK 230710
RWRKY
KENTUCKY REGIONAL WEATHER ROUNDUP
NATIONAL WEATHER SERVICE LOUISVILLE KY
200 AM EST MON JAN 23 2017

NOTE "FAIR" INDICATES FEW OR NO CLOUDS BELOW 12,000 FEET
WITH NO SIGNIFICANT WEATHER AND/OR OBSTRUCTIONS TO VISIBILITY.

KYZ001>023-026-027-061>063-070>075-230800-
WESTERN AND SOUTH CENTRAL KENTUCKY

CITY           SKY/WX    TMP DP  RH WIND       PRES   REMARKS
PADUCAH        CLOUDY    47  39  74 N15G28    29.56R
HENDERSON      CLOUDY    48  45  87 NW20G25   29.49R
OWENSBORO      CLOUDY    52  48  86 N14       29.44R
HOPKINSVILLE   CLOUDY    54  50  87 NW17G32   29.40R
BOWLING GREEN  CLOUDY    58  49  72 N12G20    29.33S
GLASGOW        LGT RAIN  56  50  80 N15G21    29.31S
$$

KYZ024-025-028>034-038-045-046-053-230800-
NORTH CENTRAL KENTUCKY

CITY           SKY/WX    TMP DP  RH WIND       PRES   REMARKS
LOUISVILLE/SDF CLOUDY    57  48  72 N14       29.37F
LOUISVILLE/LOU CLOUDY    57  48  72 N9        29.38S
FORT KNOX      CLOUDY    56  49  77 N13G20    29.36S
$$

KYZ035>037-039>044-047>052-055>060-089>105-230800-
NORTHEAST KENTUCKY

CITY           SKY/WX    TMP DP  RH WIND       PRES   REMARKS
LEXINGTON      LGT RAIN  53  50  89 N12       29.33F
COVINGTON      CLOUDY    54  48  80 N18       29.39F
FRANKFORT      CLOUDY    57  47  69 N12G21    29.34F
$$

KYZ054-064>069-076>088-106>120-230800-
SOUTHEAST KENTUCKY

CITY           SKY/WX    TMP DP  RH WIND       PRES   REMARKS
JACKSON        LGT RAIN  52  50  93 VRB5      29.28F
LONDON         RAIN      53  51  93 NE8       29.25F
SOMERSET       LGT RAIN  52  52 100 N7        29.27S
MIDDLESBORO    RAIN      53  53 100 SE3       29.23R
MONTICELLO     LGT RAIN  54  52  93 N21       29.26F
$$





USA.gov is the U.S. government's official web portal to all federal, state and local government web resources and services.